Volver al catálogo

STARLINK-36339

ActivoComunicacionesVLEO
NORAD 67340·PAYLOAD·🇺🇸 United States

Lanzado Jan 9, 2026 desde Cape Canaveral Space Force Station

Loading…

Próximos Pases (próximas 24 horas)

TLE

ActualizadoSource: CelesTrak SupGP

Época: Sep 14, 2026, 23:17 UTC

1 67340C 26003G   26257.97062500  .00018545  00000+0  67177-3 0  2572
2 67340  42.9994 238.1053 0001167 257.2286  43.2631 15.27565380    10

Sigue STARLINK-36339 en tiempo real con AllMySat

Download on the App Store